Time,TemperatureF,DewpointF,PressureIn,WindDirection,WindDirectionDegrees,WindSpeedMPH,WindSpeedGustMPH,Humidity,HourlyPrecipIn,Conditions,Clouds,dailyrainin,SoftwareType,DateUTC
2013-02-05 00:00:00,43.0,0.0,29.64,SW,225,0.0,2.0,0,0.00,,,0.00,Weather View 32 v70,2013-02-05 08:00:00,
2013-02-05 00:05:00,43.0,0.0,29.64,SW,225,0.0,2.0,0,0.00,,,0.00,Weather View 32 v70,2013-02-05 08:05:00,
2013-02-05 00:10:00,43.0,0.0,29.63,WSW,248,0.0,2.0,0,0.00,,,0.00,Weather View 32 v70,2013-02-05 08:10:00,
2013-02-05 00:15:00,42.0,0.0,29.64,SW,225,1.0,3.0,0,0.00,,,0.00,Weather View 32 v70,2013-02-05 08:15:00,
2013-02-05 00:20:00,42.0,0.0,29.64,SW,225,1.0,3.0,0,0.00,,,0.00,Weather View 32 v70,2013-02-05 08:20:00,
2013-02-05 00:25:00,42.0,0.0,29.64,SSW,202,3.0,3.0,0,0.00,,,0.00,Weather View 32 v70,2013-02-05 08:25:00,
2013-02-05 00:30:00,42.0,0.0,29.64,SSW,202,0.0,3.0,0,0.00,,,0.00,Weather View 32 v70,2013-02-05 08:30:00,
2013-02-05 00:35:00,42.0,0.0,29.64,WSW,248,0.0,3.0,0,0.00,,,0.00,Weather View 32 v70,2013-02-05 08:35:00,
2013-02-05 00:40:00,42.0,0.0,29.64,SSW,202,0.0,3.0,0,0.00,,,0.00,Weather View 32 v70,2013-02-05 08:40:00,
2013-02-05 00:45:00,42.0,0.0,29.64,WSW,248,0.0,3.0,0,0.00,,,0.00,Weather View 32 v70,2013-02-05 08:45:00,
2013-02-05 00:50:00,42.0,0.0,29.64,SW,225,0.0,3.0,0,0.00,,,0.00,Weather View 32 v70,2013-02-05 08:50:00,
2013-02-05 00:55:00,42.0,0.0,29.64,SSW,202,0.0,3.0,0,0.00,,,0.00,Weather View 32 v70,2013-02-05 08:55:00,
2013-02-05 01:00:00,42.0,0.0,29.64,SW,225,0.0,3.0,0,0.00,,,0.00,Weather View 32 v70,2013-02-05 09:00:00,
2013-02-05 01:05:00,42.0,0.0,29.64,WSW,248,0.0,3.0,0,0.00,,,0.00,Weather View 32 v70,2013-02-05 09:05:00,
2013-02-05 01:10:00,42.0,0.0,29.64,SW,225,0.0,3.0,0,0.00,,,0.00,Weather View 32 v70,2013-02-05 09:10:00,
2013-02-05 01:15:00,42.0,0.0,29.63,SW,225,0.0,3.0,0,0.00,,,0.00,Weather View 32 v70,2013-02-05 09:15:00,
2013-02-05 01:20:00,42.0,0.0,29.63,SW,225,0.0,3.0,0,0.00,,,0.00,Weather View 32 v70,2013-02-05 09:20:00,
2013-02-05 01:25:00,42.0,0.0,29.63,SW,225,0.0,3.0,0,0.00,,,0.00,Weather View 32 v70,2013-02-05 09:25:00,
2013-02-05 01:30:00,42.0,0.0,29.63,SW,225,0.0,1.0,0,0.00,,,0.00,Weather View 32 v70,2013-02-05 09:30:00,
2013-02-05 01:35:00,42.0,0.0,29.63,South,180,0.0,0.0,0,0.00,,,0.00,Weather View 32 v70,2013-02-05 09:35:00,
2013-02-05 01:40:00,42.0,0.0,29.63,SW,225,0.0,0.0,0,0.00,,,0.00,Weather View 32 v70,2013-02-05 09:40:00,
2013-02-05 01:45:00,42.0,0.0,29.63,SSW,202,0.0,0.0,0,0.00,,,0.00,Weather View 32 v70,2013-02-05 09:45:00,
2013-02-05 01:50:00,42.0,0.0,29.63,SSW,202,0.0,0.0,0,0.00,,,0.00,Weather View 32 v70,2013-02-05 09:50:00,
2013-02-05 01:55:00,42.0,0.0,29.63,SW,225,0.0,0.0,0,0.00,,,0.00,Weather View 32 v70,2013-02-05 09:55:00,
2013-02-05 02:00:00,42.0,0.0,29.62,WSW,248,0.0,0.0,0,0.00,,,0.00,Weather View 32 v70,2013-02-05 10:00:00,
2013-02-05 02:05:00,42.0,0.0,29.63,SW,225,0.0,0.0,0,0.00,,,0.00,Weather View 32 v70,2013-02-05 10:05:00,
2013-02-05 02:10:00,42.0,0.0,29.63,WSW,248,0.0,0.0,0,0.00,,,0.00,Weather View 32 v70,2013-02-05 10:10:00,
2013-02-05 02:15:00,42.0,0.0,29.63,SW,225,0.0,0.0,0,0.00,,,0.00,Weather View 32 v70,2013-02-05 10:15:00,
2013-02-05 02:20:00,43.0,0.0,29.63,SW,225,0.0,0.0,0,0.00,,,0.00,Weather View 32 v70,2013-02-05 10:20:00,
2013-02-05 02:25:00,43.0,0.0,29.63,SW,225,0.0,0.0,0,0.00,,,0.00,Weather View 32 v70,2013-02-05 10:25:00,
2013-02-05 02:30:00,43.0,0.0,29.62,SSE,158,0.0,1.0,0,0.00,,,0.00,Weather View 32 v70,2013-02-05 10:30:00,
2013-02-05 02:35:00,43.0,0.0,29.62,SW,225,0.0,1.0,0,0.00,,,0.00,Weather View 32 v70,2013-02-05 10:35:00,
2013-02-05 02:40:00,43.0,0.0,29.62,SSW,202,1.0,5.0,0,0.00,,,0.00,Weather View 32 v70,2013-02-05 10:40:00,
2013-02-05 02:45:00,44.0,0.0,29.61,SSW,202,0.0,5.0,0,0.00,,,0.00,Weather View 32 v70,2013-02-05 10:45:00,
2013-02-05 02:50:00,44.0,0.0,29.61,SE,135,0.0,5.0,0,0.00,,,0.00,Weather View 32 v70,2013-02-05 10:50:00,
2013-02-05 02:55:00,44.0,0.0,29.61,WSW,248,0.0,5.0,0,0.00,,,0.00,Weather View 32 v70,2013-02-05 10:55:00,
2013-02-05 03:00:00,44.0,0.0,29.61,SW,225,0.0,5.0,0,0.00,,,0.00,Weather View 32 v70,2013-02-05 11:00:00,
2013-02-05 03:05:00,44.0,0.0,29.61,SSW,202,0.0,5.0,0,0.00,,,0.00,Weather View 32 v70,2013-02-05 11:05:00,
2013-02-05 03:10:00,44.0,0.0,29.61,SW,225,0.0,5.0,0,0.00,,,0.00,Weather View 32 v70,2013-02-05 11:10:00,
2013-02-05 03:15:00,44.0,0.0,29.62,SW,225,0.0,5.0,0,0.00,,,0.00,Weather View 32 v70,2013-02-05 11:15:00,
2013-02-05 03:20:00,44.0,0.0,29.62,SSW,202,0.0,5.0,0,0.00,,,0.00,Weather View 32 v70,2013-02-05 11:20:00,
2013-02-05 03:25:00,44.0,0.0,29.62,WSW,248,0.0,5.0,0,0.00,,,0.00,Weather View 32 v70,2013-02-05 11:25:00,
2013-02-05 03:30:00,44.0,0.0,29.62,WSW,248,0.0,5.0,0,0.00,,,0.00,Weather View 32 v70,2013-02-05 11:30:00,
2013-02-05 03:35:00,44.0,0.0,29.62,SSW,202,0.0,5.0,0,0.00,,,0.00,Weather View 32 v70,2013-02-05 11:35:00,
2013-02-05 03:40:00,44.0,0.0,29.63,SSW,202,0.0,3.0,0,0.00,,,0.00,Weather View 32 v70,2013-02-05 11:40:00,
2013-02-05 03:45:00,44.0,0.0,29.63,WSW,248,0.0,3.0,0,0.01,,,0.01,Weather View 32 v70,2013-02-05 11:45:00,
2013-02-05 03:50:00,44.0,0.0,29.63,WSW,248,0.0,3.0,0,0.01,,,0.01,Weather View 32 v70,2013-02-05 11:50:00,
2013-02-05 03:55:00,44.0,0.0,29.63,West,270,0.0,3.0,0,0.01,,,0.01,Weather View 32 v70,2013-02-05 11:55:00,
2013-02-05 04:00:00,43.0,0.0,29.63,WSW,248,0.0,1.0,0,0.01,,,0.01,Weather View 32 v70,2013-02-05 12:00:00,
2013-02-05 04:05:00,43.0,0.0,29.63,SW,225,0.0,0.0,0,0.01,,,0.01,Weather View 32 v70,2013-02-05 12:05:00,
2013-02-05 04:10:00,43.0,0.0,29.63,WSW,248,0.0,0.0,0,0.01,,,0.01,Weather View 32 v70,2013-02-05 12:10:00,
2013-02-05 04:15:00,43.0,0.0,29.62,WSW,248,0.0,4.0,0,0.01,,,0.01,Weather View 32 v70,2013-02-05 12:15:00,
2013-02-05 04:20:00,43.0,0.0,29.62,SSW,202,1.0,4.0,0,0.02,,,0.02,Weather View 32 v70,2013-02-05 12:20:00,
2013-02-05 04:25:00,43.0,0.0,29.62,WSW,248,0.0,4.0,0,0.02,,,0.02,Weather View 32 v70,2013-02-05 12:25:00,
2013-02-05 04:30:00,43.0,0.0,29.62,WSW,248,0.0,4.0,0,0.02,,,0.02,Weather View 32 v70,2013-02-05 12:30:00,
2013-02-05 04:35:00,43.0,0.0,29.62,SW,225,0.0,4.0,0,0.02,,,0.02,Weather View 32 v70,2013-02-05 12:35:00,
2013-02-05 04:40:00,43.0,0.0,29.62,SW,225,0.0,4.0,0,0.02,,,0.02,Weather View 32 v70,2013-02-05 12:40:00,
2013-02-05 04:45:00,42.0,0.0,29.62,SW,225,0.0,4.0,0,0.01,,,0.02,Weather View 32 v70,2013-02-05 12:45:00,
2013-02-05 04:50:00,42.0,0.0,29.62,SW,225,0.0,4.0,0,0.01,,,0.02,Weather View 32 v70,2013-02-05 12:50:00,
2013-02-05 04:55:00,42.0,0.0,29.62,SW,225,0.0,4.0,0,0.01,,,0.02,Weather View 32 v70,2013-02-05 12:55:00,
2013-02-05 05:00:00,42.0,0.0,29.62,SSW,202,0.0,4.0,0,0.02,,,0.03,Weather View 32 v70,2013-02-05 13:00:00,
2013-02-05 05:05:00,42.0,0.0,29.61,SW,225,0.0,4.0,0,0.02,,,0.03,Weather View 32 v70,2013-02-05 13:05:00,
2013-02-05 05:10:00,42.0,0.0,29.61,SW,225,0.0,4.0,0,0.03,,,0.04,Weather View 32 v70,2013-02-05 13:10:00,
2013-02-05 05:15:00,42.0,0.0,29.60,SW,225,0.0,3.0,0,0.03,,,0.04,Weather View 32 v70,2013-02-05 13:15:00,
2013-02-05 05:20:00,42.0,0.0,29.60,SW,225,0.0,3.0,0,0.02,,,0.04,Weather View 32 v70,2013-02-05 13:20:00,
2013-02-05 05:25:00,42.0,0.0,29.60,SW,225,0.0,1.0,0,0.03,,,0.05,Weather View 32 v70,2013-02-05 13:25:00,
2013-02-05 05:30:00,42.0,0.0,29.60,WSW,248,0.0,0.0,0,0.03,,,0.05,Weather View 32 v70,2013-02-05 13:30:00,
2013-02-05 05:35:00,42.0,0.0,29.59,SW,225,0.0,0.0,0,0.03,,,0.05,Weather View 32 v70,2013-02-05 13:35:00,
2013-02-05 05:40:00,42.0,0.0,29.59,SSW,202,0.0,0.0,0,0.03,,,0.05,Weather View 32 v70,2013-02-05 13:40:00,
2013-02-05 05:45:00,42.0,0.0,29.58,SSW,202,0.0,0.0,0,0.03,,,0.05,Weather View 32 v70,2013-02-05 13:45:00,
2013-02-05 05:50:00,42.0,0.0,29.58,SW,225,0.0,0.0,0,0.03,,,0.05,Weather View 32 v70,2013-02-05 13:50:00,
2013-02-05 05:55:00,42.0,0.0,29.58,SW,225,0.0,3.0,0,0.03,,,0.05,Weather View 32 v70,2013-02-05 13:55:00,
2013-02-05 06:00:00,42.0,0.0,29.58,SSW,202,0.0,3.0,0,0.02,,,0.05,Weather View 32 v70,2013-02-05 14:00:00,
2013-02-05 06:05:00,42.0,0.0,29.58,SSW,202,0.0,3.0,0,0.02,,,0.05,Weather View 32 v70,2013-02-05 14:05:00,
2013-02-05 06:10:00,42.0,0.0,29.57,SW,225,0.0,3.0,0,0.01,,,0.06,Weather View 32 v70,2013-02-05 14:10:00,
2013-02-05 06:15:00,42.0,0.0,29.57,SSW,202,0.0,3.0,0,0.02,,,0.06,Weather View 32 v70,2013-02-05 14:15:00,
2013-02-05 06:20:00,42.0,0.0,29.57,WSW,248,0.0,3.0,0,0.02,,,0.06,Weather View 32 v70,2013-02-05 14:20:00,
2013-02-05 06:25:00,42.0,0.0,29.57,SW,225,0.0,3.0,0,0.01,,,0.06,Weather View 32 v70,2013-02-05 14:25:00,
2013-02-05 06:30:00,42.0,0.0,29.57,West,270,0.0,3.0,0,0.01,,,0.06,Weather View 32 v70,2013-02-05 14:30:00,
2013-02-05 06:35:00,42.0,0.0,29.58,WSW,248,0.0,3.0,0,0.01,,,0.06,Weather View 32 v70,2013-02-05 14:35:00,
2013-02-05 06:40:00,42.0,0.0,29.58,West,270,0.0,3.0,0,0.01,,,0.06,Weather View 32 v70,2013-02-05 14:40:00,
2013-02-05 06:45:00,42.0,0.0,29.58,NNE,22,0.0,3.0,0,0.02,,,0.07,Weather View 32 v70,2013-02-05 14:45:00,
2013-02-05 06:50:00,42.0,0.0,29.57,NW,315,0.0,3.0,0,0.02,,,0.07,Weather View 32 v70,2013-02-05 14:50:00,
2013-02-05 06:55:00,42.0,0.0,29.58,SE,135,0.0,2.0,0,0.02,,,0.07,Weather View 32 v70,2013-02-05 14:55:00,
2013-02-05 07:00:00,42.0,0.0,29.58,East,90,0.0,2.0,0,0.02,,,0.07,Weather View 32 v70,2013-02-05 15:00:00,
2013-02-05 07:05:00,42.0,0.0,29.58,WSW,248,0.0,1.0,0,0.02,,,0.07,Weather View 32 v70,2013-02-05 15:05:00,
2013-02-05 07:10:00,42.0,0.0,29.58,South,180,0.0,1.0,0,0.03,,,0.08,Weather View 32 v70,2013-02-05 15:10:00,
2013-02-05 07:15:00,42.0,0.0,29.58,WSW,248,0.0,1.0,0,0.02,,,0.08,Weather View 32 v70,2013-02-05 15:15:00,
2013-02-05 07:20:00,42.0,0.0,29.58,SSW,202,0.0,1.0,0,0.02,,,0.08,Weather View 32 v70,2013-02-05 15:20:00,
2013-02-05 07:25:00,42.0,0.0,29.58,SSW,202,0.0,1.0,0,0.03,,,0.09,Weather View 32 v70,2013-02-05 15:25:00,
2013-02-05 07:30:00,42.0,0.0,29.58,SW,225,0.0,1.0,0,0.03,,,0.09,Weather View 32 v70,2013-02-05 15:30:00,
2013-02-05 07:35:00,42.0,0.0,29.58,SW,225,0.0,1.0,0,0.03,,,0.09,Weather View 32 v70,2013-02-05 15:35:00,
2013-02-05 07:40:00,42.0,0.0,29.59,WSW,248,0.0,1.0,0,0.03,,,0.09,Weather View 32 v70,2013-02-05 15:40:00,
2013-02-05 07:45:00,42.0,0.0,29.58,SSW,202,0.0,1.0,0,0.02,,,0.09,Weather View 32 v70,2013-02-05 15:45:00,
2013-02-05 07:50:00,42.0,0.0,29.59,SW,225,0.0,1.0,0,0.03,,,0.10,Weather View 32 v70,2013-02-05 15:50:00,
2013-02-05 07:55:00,42.0,0.0,29.58,SSW,202,0.0,1.0,0,0.03,,,0.10,Weather View 32 v70,2013-02-05 15:55:00,
2013-02-05 08:00:00,42.0,0.0,29.59,WSW,248,0.0,1.0,0,0.03,,,0.10,Weather View 32 v70,2013-02-05 16:00:00,
2013-02-05 08:05:00,42.0,0.0,29.59,WSW,248,0.0,1.0,0,0.03,,,0.10,Weather View 32 v70,2013-02-05 16:05:00,
2013-02-05 08:10:00,42.0,0.0,29.59,SW,225,0.0,1.0,0,0.02,,,0.10,Weather View 32 v70,2013-02-05 16:10:00,
2013-02-05 08:15:00,42.0,0.0,29.59,SSW,202,0.0,1.0,0,0.02,,,0.10,Weather View 32 v70,2013-02-05 16:15:00,
2013-02-05 08:20:00,42.0,0.0,29.59,SW,225,0.0,0.0,0,0.02,,,0.10,Weather View 32 v70,2013-02-05 16:20:00,
2013-02-05 08:25:00,42.0,0.0,29.59,SSW,202,0.0,0.0,0,0.01,,,0.10,Weather View 32 v70,2013-02-05 16:25:00,
2013-02-05 08:30:00,42.0,0.0,29.59,WSW,248,0.0,0.0,0,0.01,,,0.10,Weather View 32 v70,2013-02-05 16:30:00,
2013-02-05 08:35:00,42.0,0.0,29.59,SW,225,0.0,0.0,0,0.01,,,0.10,Weather View 32 v70,2013-02-05 16:35:00,
2013-02-05 08:40:00,42.0,0.0,29.59,WSW,248,0.0,0.0,0,0.02,,,0.11,Weather View 32 v70,2013-02-05 16:40:00,
2013-02-05 08:45:00,42.0,0.0,29.59,SSW,202,0.0,1.0,0,0.02,,,0.11,Weather View 32 v70,2013-02-05 16:45:00,
2013-02-05 08:50:00,43.0,0.0,29.59,South,180,0.0,1.0,0,0.01,,,0.11,Weather View 32 v70,2013-02-05 16:50:00,
2013-02-05 08:55:00,43.0,0.0,29.59,SSW,202,1.0,2.0,0,0.01,,,0.11,Weather View 32 v70,2013-02-05 16:55:00,
2013-02-05 09:00:00,43.0,0.0,29.59,SW,225,0.0,2.0,0,0.01,,,0.11,Weather View 32 v70,2013-02-05 17:00:00,
2013-02-05 09:05:00,43.0,0.0,29.59,SW,225,0.0,2.0,0,0.01,,,0.11,Weather View 32 v70,2013-02-05 17:05:00,
2013-02-05 09:10:00,43.0,0.0,29.59,SW,225,0.0,2.0,0,0.02,,,0.12,Weather View 32 v70,2013-02-05 17:10:00,
2013-02-05 09:15:00,43.0,0.0,29.59,WNW,292,0.0,2.0,0,0.02,,,0.12,Weather View 32 v70,2013-02-05 17:15:00,
2013-02-05 09:20:00,43.0,0.0,29.59,SSW,202,0.0,2.0,0,0.02,,,0.12,Weather View 32 v70,2013-02-05 17:20:00,
2013-02-05 09:25:00,43.0,0.0,29.59,SSW,202,0.0,2.0,0,0.02,,,0.12,Weather View 32 v70,2013-02-05 17:25:00,
2013-02-05 09:30:00,43.0,0.0,29.59,WNW,292,0.0,2.0,0,0.02,,,0.12,Weather View 32 v70,2013-02-05 17:30:00,
2013-02-05 09:35:00,43.0,0.0,29.59,WSW,248,0.0,2.0,0,0.02,,,0.12,Weather View 32 v70,2013-02-05 17:35:00,
2013-02-05 09:40:00,43.0,0.0,29.60,SW,225,0.0,2.0,0,0.01,,,0.12,Weather View 32 v70,2013-02-05 17:40:00,
2013-02-05 09:45:00,43.0,0.0,29.60,WSW,248,0.0,6.0,0,0.01,,,0.12,Weather View 32 v70,2013-02-05 17:45:00,
2013-02-05 09:50:00,43.0,0.0,29.60,SSW,202,0.0,6.0,0,0.02,,,0.13,Weather View 32 v70,2013-02-05 17:50:00,
2013-02-05 09:55:00,43.0,0.0,29.60,SSW,202,0.0,6.0,0,0.02,,,0.13,Weather View 32 v70,2013-02-05 17:55:00,
2013-02-05 10:00:00,43.0,0.0,29.60,SSW,202,0.0,6.0,0,0.02,,,0.13,Weather View 32 v70,2013-02-05 18:00:00,
2013-02-05 10:05:00,43.0,0.0,29.61,South,180,0.0,6.0,0,0.02,,,0.13,Weather View 32 v70,2013-02-05 18:05:00,
2013-02-05 10:10:00,43.0,0.0,29.61,WSW,248,0.0,6.0,0,0.01,,,0.13,Weather View 32 v70,2013-02-05 18:10:00,
2013-02-05 10:15:00,44.0,0.0,29.61,SSW,202,0.0,6.0,0,0.01,,,0.13,Weather View 32 v70,2013-02-05 18:15:00,
2013-02-05 10:20:00,44.0,0.0,29.61,SW,225,0.0,6.0,0,0.01,,,0.13,Weather View 32 v70,2013-02-05 18:20:00,
2013-02-05 10:25:00,44.0,0.0,29.61,South,180,0.0,6.0,0,0.01,,,0.13,Weather View 32 v70,2013-02-05 18:25:00,
2013-02-05 10:30:00,43.0,0.0,29.61,SSW,202,0.0,6.0,0,0.01,,,0.13,Weather View 32 v70,2013-02-05 18:30:00,
2013-02-05 10:35:00,43.0,0.0,29.62,South,180,0.0,6.0,0,0.02,,,0.14,Weather View 32 v70,2013-02-05 18:35:00,
2013-02-05 10:40:00,43.0,0.0,29.62,SSW,202,0.0,6.0,0,0.02,,,0.14,Weather View 32 v70,2013-02-05 18:40:00,
2013-02-05 10:45:00,44.0,0.0,29.62,SW,225,0.0,4.0,0,0.02,,,0.14,Weather View 32 v70,2013-02-05 18:45:00,
2013-02-05 10:50:00,44.0,0.0,29.61,SSW,202,0.0,4.0,0,0.02,,,0.14,Weather View 32 v70,2013-02-05 18:50:00,
2013-02-05 10:55:00,44.0,0.0,29.62,SW,225,0.0,4.0,0,0.02,,,0.15,Weather View 32 v70,2013-02-05 18:55:00,
2013-02-05 11:00:00,44.0,0.0,29.62,SW,225,0.0,4.0,0,0.04,,,0.17,Weather View 32 v70,2013-02-05 19:00:00,
2013-02-05 11:05:00,44.0,0.0,29.62,SW,225,0.0,4.0,0,0.06,,,0.20,Weather View 32 v70,2013-02-05 19:05:00,
2013-02-05 11:10:00,44.0,0.0,29.62,SW,225,0.0,4.0,0,0.08,,,0.22,Weather View 32 v70,2013-02-05 19:10:00,
2013-02-05 11:15:00,44.0,0.0,29.62,SW,225,0.0,1.0,0,0.10,,,0.23,Weather View 32 v70,2013-02-05 19:15:00,
2013-02-05 11:20:00,44.0,0.0,29.63,SW,225,0.0,1.0,0,0.12,,,0.25,Weather View 32 v70,2013-02-05 19:20:00,
2013-02-05 11:25:00,43.0,0.0,29.63,WSW,248,0.0,1.0,0,0.14,,,0.27,Weather View 32 v70,2013-02-05 19:25:00,
2013-02-05 11:30:00,44.0,0.0,29.63,WSW,248,0.0,0.0,0,0.14,,,0.27,Weather View 32 v70,2013-02-05 19:30:00,
2013-02-05 11:35:00,44.0,0.0,29.62,SSW,202,0.0,0.0,0,0.13,,,0.28,Weather View 32 v70,2013-02-05 19:35:00,
2013-02-05 11:40:00,44.0,0.0,29.62,SSW,202,0.0,0.0,0,0.14,,,0.28,Weather View 32 v70,2013-02-05 19:40:00,
2013-02-05 11:45:00,44.0,0.0,29.62,South,180,0.0,0.0,0,0.14,,,0.28,Weather View 32 v70,2013-02-05 19:45:00,
2013-02-05 11:50:00,44.0,0.0,29.62,WSW,248,0.0,0.0,0,0.15,,,0.29,Weather View 32 v70,2013-02-05 19:50:00,
2013-02-05 11:55:00,44.0,0.0,29.62,SW,225,0.0,0.0,0,0.15,,,0.30,Weather View 32 v70,2013-02-05 19:55:00,
2013-02-05 12:00:00,43.0,0.0,29.62,SW,225,0.0,0.0,0,0.13,,,0.30,Weather View 32 v70,2013-02-05 20:00:00,
2013-02-05 12:05:00,44.0,0.0,29.62,South,180,0.0,0.0,0,0.11,,,0.30,Weather View 32 v70,2013-02-05 20:05:00,
2013-02-05 12:10:00,44.0,0.0,29.61,SW,225,0.0,0.0,0,0.09,,,0.30,Weather View 32 v70,2013-02-05 20:10:00,
2013-02-05 12:15:00,45.0,0.0,29.61,SSW,202,0.0,0.0,0,0.07,,,0.30,Weather View 32 v70,2013-02-05 20:15:00,
2013-02-05 12:20:00,45.0,0.0,29.61,South,180,0.0,0.0,0,0.05,,,0.31,Weather View 32 v70,2013-02-05 20:20:00,
2013-02-05 12:25:00,45.0,0.0,29.61,SSW,202,0.0,0.0,0,0.04,,,0.31,Weather View 32 v70,2013-02-05 20:25:00,
2013-02-05 12:30:00,45.0,0.0,29.61,SSW,202,0.0,0.0,0,0.04,,,0.31,Weather View 32 v70,2013-02-05 20:30:00,
2013-02-05 12:35:00,45.0,0.0,29.61,SSW,202,3.0,0.0,0,0.04,,,0.31,Weather View 32 v70,2013-02-05 20:35:00,
2013-02-05 12:40:00,45.0,0.0,29.61,SW,225,1.0,4.0,0,0.03,,,0.31,Weather View 32 v70,2013-02-05 20:40:00,
2013-02-05 12:45:00,46.0,0.0,29.60,WSW,248,0.0,4.0,0,0.03,,,0.31,Weather View 32 v70,2013-02-05 20:45:00,
2013-02-05 12:50:00,45.0,0.0,29.60,SSW,202,0.0,4.0,0,0.02,,,0.31,Weather View 32 v70,2013-02-05 20:50:00,
2013-02-05 12:55:00,45.0,0.0,29.61,SW,225,0.0,4.0,0,0.01,,,0.31,Weather View 32 v70,2013-02-05 20:55:00,
2013-02-05 13:00:00,45.0,0.0,29.60,South,180,0.0,4.0,0,0.01,,,0.31,Weather View 32 v70,2013-02-05 21:00:00,
2013-02-05 13:05:00,44.0,0.0,29.60,SW,225,5.0,6.0,0,0.02,,,0.32,Weather View 32 v70,2013-02-05 21:05:00,
2013-02-05 13:10:00,44.0,0.0,29.60,South,180,0.0,6.0,0,0.03,,,0.33,Weather View 32 v70,2013-02-05 21:10:00,
2013-02-05 13:15:00,45.0,0.0,29.60,WSW,248,0.0,6.0,0,0.03,,,0.33,Weather View 32 v70,2013-02-05 21:15:00,
2013-02-05 13:20:00,45.0,0.0,29.60,SSW,202,0.0,6.0,0,0.03,,,0.33,Weather View 32 v70,2013-02-05 21:20:00,
2013-02-05 13:25:00,45.0,0.0,29.59,SW,225,0.0,6.0,0,0.02,,,0.33,Weather View 32 v70,2013-02-05 21:25:00,
2013-02-05 13:30:00,45.0,0.0,29.59,SSW,202,0.0,6.0,0,0.02,,,0.33,Weather View 32 v70,2013-02-05 21:30:00,
2013-02-05 13:35:00,45.0,0.0,29.59,SSE,158,0.0,6.0,0,0.02,,,0.33,Weather View 32 v70,2013-02-05 21:35:00,
2013-02-05 13:40:00,45.0,0.0,29.59,SSW,202,0.0,6.0,0,0.02,,,0.33,Weather View 32 v70,2013-02-05 21:40:00,
2013-02-05 13:45:00,45.0,0.0,29.58,WSW,248,0.0,6.0,0,0.02,,,0.33,Weather View 32 v70,2013-02-05 21:45:00,
2013-02-05 13:50:00,46.0,0.0,29.58,SW,225,0.0,6.0,0,0.02,,,0.33,Weather View 32 v70,2013-02-05 21:50:00,
2013-02-05 13:55:00,46.0,0.0,29.57,SSW,202,0.0,6.0,0,0.02,,,0.33,Weather View 32 v70,2013-02-05 21:55:00,
2013-02-05 14:00:00,46.0,0.0,29.57,South,180,0.0,6.0,0,0.02,,,0.33,Weather View 32 v70,2013-02-05 22:00:00,
2013-02-05 14:05:00,46.0,0.0,29.57,SW,225,2.0,5.0,0,0.01,,,0.33,Weather View 32 v70,2013-02-05 22:05:00,
2013-02-05 14:10:00,46.0,0.0,29.57,South,180,5.0,5.0,0,0.00,,,0.33,Weather View 32 v70,2013-02-05 22:10:00,
2013-02-05 14:15:00,46.0,0.0,29.58,SW,225,3.0,5.0,0,0.01,,,0.34,Weather View 32 v70,2013-02-05 22:15:00,
2013-02-05 14:20:00,46.0,0.0,29.57,WSW,248,0.0,5.0,0,0.02,,,0.35,Weather View 32 v70,2013-02-05 22:20:00,
2013-02-05 14:25:00,46.0,0.0,29.58,WSW,248,0.0,5.0,0,0.02,,,0.35,Weather View 32 v70,2013-02-05 22:25:00,
2013-02-05 14:30:00,46.0,0.0,29.57,South,180,5.0,5.0,0,0.02,,,0.35,Weather View 32 v70,2013-02-05 22:30:00,
2013-02-05 14:35:00,45.0,0.0,29.58,SW,225,2.0,6.0,0,0.02,,,0.35,Weather View 32 v70,2013-02-05 22:35:00,
2013-02-05 14:40:00,45.0,0.0,29.57,SSW,202,0.0,6.0,0,0.02,,,0.35,Weather View 32 v70,2013-02-05 22:40:00,
2013-02-05 14:45:00,45.0,0.0,29.57,SW,225,2.0,6.0,0,0.02,,,0.35,Weather View 32 v70,2013-02-05 22:45:00,
2013-02-05 14:50:00,45.0,0.0,29.58,SW,225,2.0,6.0,0,0.02,,,0.35,Weather View 32 v70,2013-02-05 22:50:00,
2013-02-05 14:55:00,45.0,0.0,29.57,SW,225,0.0,6.0,0,0.02,,,0.35,Weather View 32 v70,2013-02-05 22:55:00,
2013-02-05 15:00:00,45.0,0.0,29.58,SW,225,2.0,6.0,0,0.02,,,0.35,Weather View 32 v70,2013-02-05 23:00:00,
2013-02-05 15:05:00,45.0,0.0,29.58,SSW,202,0.0,6.0,0,0.02,,,0.35,Weather View 32 v70,2013-02-05 23:05:00,
2013-02-05 15:10:00,45.0,0.0,29.57,SW,225,0.0,6.0,0,0.02,,,0.35,Weather View 32 v70,2013-02-05 23:10:00,
2013-02-05 15:15:00,45.0,0.0,29.57,South,180,0.0,6.0,0,0.01,,,0.35,Weather View 32 v70,2013-02-05 23:15:00,
2013-02-05 15:20:00,45.0,0.0,29.57,WSW,248,0.0,6.0,0,0.00,,,0.35,Weather View 32 v70,2013-02-05 23:20:00,
2013-02-05 15:25:00,45.0,0.0,29.57,South,180,0.0,6.0,0,0.00,,,0.35,Weather View 32 v70,2013-02-05 23:25:00,
2013-02-05 15:30:00,45.0,0.0,29.57,South,180,0.0,6.0,0,0.00,,,0.35,Weather View 32 v70,2013-02-05 23:30:00,
2013-02-05 15:35:00,45.0,0.0,29.57,West,270,0.0,6.0,0,0.00,,,0.35,Weather View 32 v70,2013-02-05 23:35:00,
2013-02-05 15:40:00,45.0,0.0,29.57,SSW,202,0.0,6.0,0,0.00,,,0.35,Weather View 32 v70,2013-02-05 23:40:00,
2013-02-05 15:45:00,45.0,0.0,29.57,WNW,292,0.0,6.0,0,0.00,,,0.35,Weather View 32 v70,2013-02-05 23:45:00,
2013-02-05 15:50:00,45.0,0.0,29.57,South,180,1.0,6.0,0,0.00,,,0.35,Weather View 32 v70,2013-02-05 23:50:00,
2013-02-05 15:59:00,45.0,0.0,29.57,WSW,248,0.0,5.0,0,0.00,,,0.35,Weather View 32 v70,2013-02-05 23:59:00,
2013-02-05 16:05:00,45.0,0.0,29.57,SSW,202,1.0,5.0,0,0.00,,,0.35,Weather View 32 v70,2013-02-06 00:05:00,
2013-02-05 16:10:00,45.0,0.0,29.57,SW,225,1.0,5.0,0,0.00,,,0.35,Weather View 32 v70,2013-02-06 00:10:00,
2013-02-05 16:15:00,45.0,0.0,29.57,South,180,0.0,5.0,0,0.00,,,0.35,Weather View 32 v70,2013-02-06 00:15:00,
2013-02-05 16:20:00,44.0,0.0,29.57,SW,225,3.0,7.0,0,0.00,,,0.35,Weather View 32 v70,2013-02-06 00:20:00,
2013-02-05 16:25:00,44.0,0.0,29.57,SSW,202,4.0,7.0,0,0.00,,,0.35,Weather View 32 v70,2013-02-06 00:25:00,
2013-02-05 16:30:00,44.0,0.0,29.57,SSW,202,1.0,7.0,0,0.01,,,0.36,Weather View 32 v70,2013-02-06 00:30:00,
2013-02-05 16:35:00,44.0,0.0,29.57,South,180,2.0,7.0,0,0.01,,,0.36,Weather View 32 v70,2013-02-06 00:35:00,
2013-02-05 16:40:00,44.0,0.0,29.58,SSW,202,5.0,7.0,0,0.01,,,0.36,Weather View 32 v70,2013-02-06 00:40:00,
2013-02-05 16:45:00,44.0,0.0,29.57,SSW,202,1.0,7.0,0,0.01,,,0.36,Weather View 32 v70,2013-02-06 00:45:00,
2013-02-05 16:50:00,44.0,0.0,29.57,SSW,202,1.0,7.0,0,0.01,,,0.36,Weather View 32 v70,2013-02-06 00:50:00,
2013-02-05 16:55:00,43.0,0.0,29.58,South,180,3.0,7.0,0,0.01,,,0.36,Weather View 32 v70,2013-02-06 00:55:00,
2013-02-05 17:00:00,43.0,0.0,29.58,South,180,3.0,7.0,0,0.01,,,0.36,Weather View 32 v70,2013-02-06 01:00:00,
2013-02-05 17:05:00,43.0,0.0,29.57,SSW,202,1.0,7.0,0,0.02,,,0.37,Weather View 32 v70,2013-02-06 01:05:00,
2013-02-05 17:10:00,43.0,0.0,29.57,SW,225,3.0,7.0,0,0.02,,,0.37,Weather View 32 v70,2013-02-06 01:10:00,
2013-02-05 17:15:00,43.0,0.0,29.57,SW,225,0.0,7.0,0,0.02,,,0.37,Weather View 32 v70,2013-02-06 01:15:00,
2013-02-05 17:20:00,43.0,0.0,29.57,SW,225,0.0,6.0,0,0.02,,,0.37,Weather View 32 v70,2013-02-06 01:20:00,
2013-02-05 17:25:00,43.0,0.0,29.58,SW,225,0.0,6.0,0,0.02,,,0.37,Weather View 32 v70,2013-02-06 01:25:00,
2013-02-05 17:30:00,43.0,0.0,29.58,SSW,202,0.0,6.0,0,0.02,,,0.38,Weather View 32 v70,2013-02-06 01:30:00,
2013-02-05 17:35:00,43.0,0.0,29.58,NW,315,0.0,6.0,0,0.02,,,0.38,Weather View 32 v70,2013-02-06 01:35:00,
2013-02-05 17:40:00,43.0,0.0,29.58,SSW,202,0.0,6.0,0,0.02,,,0.38,Weather View 32 v70,2013-02-06 01:40:00,
2013-02-05 17:45:00,43.0,0.0,29.58,WSW,248,0.0,6.0,0,0.02,,,0.38,Weather View 32 v70,2013-02-06 01:45:00,
2013-02-05 17:50:00,43.0,0.0,29.58,WNW,292,0.0,6.0,0,0.02,,,0.38,Weather View 32 v70,2013-02-06 01:50:00,
2013-02-05 17:55:00,43.0,0.0,29.58,South,180,0.0,6.0,0,0.02,,,0.38,Weather View 32 v70,2013-02-06 01:55:00,
2013-02-05 18:00:00,43.0,0.0,29.58,SW,225,0.0,6.0,0,0.02,,,0.38,Weather View 32 v70,2013-02-06 02:00:00,
2013-02-05 18:05:00,43.0,0.0,29.59,WSW,248,0.0,5.0,0,0.01,,,0.38,Weather View 32 v70,2013-02-06 02:05:00,
2013-02-05 18:10:00,43.0,0.0,29.59,SSW,202,1.0,5.0,0,0.01,,,0.38,Weather View 32 v70,2013-02-06 02:10:00,
2013-02-05 18:15:00,43.0,0.0,29.59,South,180,0.0,5.0,0,0.01,,,0.38,Weather View 32 v70,2013-02-06 02:15:00,
2013-02-05 18:20:00,43.0,0.0,29.59,SSW,202,0.0,5.0,0,0.01,,,0.38,Weather View 32 v70,2013-02-06 02:20:00,
2013-02-05 18:25:00,43.0,0.0,29.60,WSW,248,0.0,5.0,0,0.01,,,0.38,Weather View 32 v70,2013-02-06 02:25:00,
2013-02-05 18:30:00,43.0,0.0,29.60,SW,225,0.0,3.0,0,0.00,,,0.38,Weather View 32 v70,2013-02-06 02:30:00,
2013-02-05 18:35:00,43.0,0.0,29.60,SW,225,3.0,4.0,0,0.00,,,0.38,Weather View 32 v70,2013-02-06 02:35:00,
2013-02-05 18:40:00,43.0,0.0,29.60,SW,225,3.0,4.0,0,0.00,,,0.38,Weather View 32 v70,2013-02-06 02:40:00,
2013-02-05 18:45:00,43.0,0.0,29.61,SSW,202,2.0,4.0,0,0.00,,,0.38,Weather View 32 v70,2013-02-06 02:45:00,
2013-02-05 18:50:00,43.0,0.0,29.60,West,270,0.0,4.0,0,0.00,,,0.38,Weather View 32 v70,2013-02-06 02:50:00,
2013-02-05 18:55:00,43.0,0.0,29.61,SSW,202,0.0,4.0,0,0.01,,,0.39,Weather View 32 v70,2013-02-06 02:55:00,
2013-02-05 19:00:00,43.0,0.0,29.61,SSW,202,0.0,4.0,0,0.01,,,0.39,Weather View 32 v70,2013-02-06 03:00:00,
2013-02-05 19:05:00,43.0,0.0,29.61,South,180,0.0,5.0,0,0.01,,,0.39,Weather View 32 v70,2013-02-06 03:05:00,
2013-02-05 19:10:00,43.0,0.0,29.61,SW,225,1.0,5.0,0,0.01,,,0.39,Weather View 32 v70,2013-02-06 03:10:00,
2013-02-05 19:15:00,43.0,0.0,29.61,WSW,248,0.0,5.0,0,0.01,,,0.39,Weather View 32 v70,2013-02-06 03:15:00,
2013-02-05 19:20:00,43.0,0.0,29.62,SSW,202,3.0,5.0,0,0.01,,,0.39,Weather View 32 v70,2013-02-06 03:20:00,
2013-02-05 19:25:00,43.0,0.0,29.62,SSW,202,2.0,5.0,0,0.01,,,0.39,Weather View 32 v70,2013-02-06 03:25:00,
2013-02-05 19:30:00,43.0,0.0,29.62,SSW,202,0.0,5.0,0,0.03,,,0.41,Weather View 32 v70,2013-02-06 03:30:00,
2013-02-05 19:35:00,43.0,0.0,29.62,SW,225,0.0,5.0,0,0.04,,,0.42,Weather View 32 v70,2013-02-06 03:35:00,
2013-02-05 19:40:00,43.0,0.0,29.61,SSW,202,0.0,5.0,0,0.04,,,0.42,Weather View 32 v70,2013-02-06 03:40:00,
2013-02-05 19:45:00,43.0,0.0,29.61,SSW,202,0.0,5.0,0,0.04,,,0.42,Weather View 32 v70,2013-02-06 03:45:00,
2013-02-05 19:50:00,43.0,0.0,29.61,SSW,202,0.0,5.0,0,0.04,,,0.42,Weather View 32 v70,2013-02-06 03:50:00,
2013-02-05 19:55:00,43.0,0.0,29.62,SW,225,0.0,5.0,0,0.03,,,0.42,Weather View 32 v70,2013-02-06 03:55:00,
2013-02-05 20:00:00,43.0,0.0,29.62,SSW,202,0.0,5.0,0,0.04,,,0.43,Weather View 32 v70,2013-02-06 04:00:00,
2013-02-05 20:05:00,42.0,0.0,29.62,SSW,202,3.0,5.0,0,0.04,,,0.43,Weather View 32 v70,2013-02-06 04:05:00,
2013-02-05 20:10:00,42.0,0.0,29.62,South,180,0.0,5.0,0,0.04,,,0.43,Weather View 32 v70,2013-02-06 04:10:00,
2013-02-05 20:15:00,42.0,0.0,29.62,SW,225,0.0,5.0,0,0.04,,,0.43,Weather View 32 v70,2013-02-06 04:15:00,
2013-02-05 20:20:00,42.0,0.0,29.63,SW,225,3.0,5.0,0,0.04,,,0.43,Weather View 32 v70,2013-02-06 04:20:00,
2013-02-05 20:25:00,42.0,0.0,29.63,SW,225,1.0,5.0,0,0.04,,,0.43,Weather View 32 v70,2013-02-06 04:25:00,
2013-02-05 20:30:00,42.0,0.0,29.63,SW,225,0.0,5.0,0,0.02,,,0.43,Weather View 32 v70,2013-02-06 04:30:00,
2013-02-05 20:35:00,43.0,0.0,29.63,WSW,248,0.0,5.0,0,0.01,,,0.43,Weather View 32 v70,2013-02-06 04:35:00,
2013-02-05 20:40:00,43.0,0.0,29.63,SW,225,0.0,5.0,0,0.01,,,0.43,Weather View 32 v70,2013-02-06 04:40:00,
2013-02-05 20:45:00,43.0,0.0,29.63,SSW,202,2.0,5.0,0,0.01,,,0.43,Weather View 32 v70,2013-02-06 04:45:00,
2013-02-05 20:50:00,42.0,0.0,29.63,SW,225,0.0,5.0,0,0.01,,,0.43,Weather View 32 v70,2013-02-06 04:50:00,
2013-02-05 20:55:00,42.0,0.0,29.63,SW,225,3.0,5.0,0,0.01,,,0.43,Weather View 32 v70,2013-02-06 04:55:00,
2013-02-05 21:00:00,42.0,0.0,29.64,SW,225,3.0,5.0,0,0.01,,,0.44,Weather View 32 v70,2013-02-06 05:00:00,
2013-02-05 21:05:00,42.0,0.0,29.63,SW,225,2.0,5.0,0,0.02,,,0.45,Weather View 32 v70,2013-02-06 05:05:00,
2013-02-05 21:10:00,42.0,0.0,29.64,SW,225,1.0,5.0,0,0.02,,,0.45,Weather View 32 v70,2013-02-06 05:10:00,
2013-02-05 21:15:00,42.0,0.0,29.63,SSW,202,0.0,5.0,0,0.02,,,0.45,Weather View 32 v70,2013-02-06 05:15:00,
2013-02-05 21:20:00,42.0,0.0,29.64,West,270,0.0,5.0,0,0.02,,,0.45,Weather View 32 v70,2013-02-06 05:20:00,
2013-02-05 21:25:00,42.0,0.0,29.63,SSW,202,0.0,5.0,0,0.02,,,0.45,Weather View 32 v70,2013-02-06 05:25:00,
2013-02-05 21:30:00,42.0,0.0,29.64,SSW,202,2.0,5.0,0,0.02,,,0.45,Weather View 32 v70,2013-02-06 05:30:00,
2013-02-05 21:35:00,42.0,0.0,29.63,SSW,202,3.0,5.0,0,0.02,,,0.45,Weather View 32 v70,2013-02-06 05:35:00,
2013-02-05 21:40:00,42.0,0.0,29.63,WSW,248,4.0,5.0,0,0.02,,,0.45,Weather View 32 v70,2013-02-06 05:40:00,
2013-02-05 21:45:00,42.0,0.0,29.63,South,180,3.0,5.0,0,0.02,,,0.45,Weather View 32 v70,2013-02-06 05:45:00,
2013-02-05 21:50:00,42.0,0.0,29.63,SSW,202,0.0,5.0,0,0.02,,,0.45,Weather View 32 v70,2013-02-06 05:50:00,
2013-02-05 21:55:00,42.0,0.0,29.63,WSW,248,0.0,5.0,0,0.02,,,0.45,Weather View 32 v70,2013-02-06 05:55:00,
2013-02-05 22:00:00,42.0,0.0,29.63,WSW,248,0.0,5.0,0,0.01,,,0.45,Weather View 32 v70,2013-02-06 06:00:00,
2013-02-05 22:05:00,42.0,0.0,29.63,WSW,248,0.0,5.0,0,0.00,,,0.45,Weather View 32 v70,2013-02-06 06:05:00,
2013-02-05 22:10:00,42.0,0.0,29.64,SSW,202,0.0,5.0,0,0.00,,,0.45,Weather View 32 v70,2013-02-06 06:10:00,
2013-02-05 22:15:00,42.0,0.0,29.64,SW,225,3.0,7.0,0,0.00,,,0.45,Weather View 32 v70,2013-02-06 06:15:00,
2013-02-05 22:20:00,42.0,0.0,29.64,SW,225,0.0,7.0,0,0.00,,,0.45,Weather View 32 v70,2013-02-06 06:20:00,
2013-02-05 22:25:00,42.0,0.0,29.65,SW,225,3.0,7.0,0,0.00,,,0.45,Weather View 32 v70,2013-02-06 06:25:00,
2013-02-05 22:30:00,42.0,0.0,29.65,SW,225,3.0,7.0,0,0.00,,,0.45,Weather View 32 v70,2013-02-06 06:30:00,
2013-02-05 22:35:00,42.0,0.0,29.66,SW,225,5.0,7.0,0,0.00,,,0.45,Weather View 32 v70,2013-02-06 06:35:00,
2013-02-05 22:40:00,42.0,0.0,29.65,SSW,202,4.0,7.0,0,0.00,,,0.45,Weather View 32 v70,2013-02-06 06:40:00,
2013-02-05 22:45:00,42.0,0.0,29.65,SW,225,3.0,7.0,0,0.00,,,0.45,Weather View 32 v70,2013-02-06 06:45:00,
2013-02-05 22:50:00,42.0,0.0,29.65,SW,225,5.0,7.0,0,0.00,,,0.45,Weather View 32 v70,2013-02-06 06:50:00,
2013-02-05 22:55:00,42.0,0.0,29.65,SW,225,4.0,7.0,0,0.00,,,0.45,Weather View 32 v70,2013-02-06 06:55:00,
2013-02-05 23:00:00,41.0,0.0,29.65,SW,225,5.0,7.0,0,0.00,,,0.45,Weather View 32 v70,2013-02-06 07:00:00,
2013-02-05 23:05:00,41.0,0.0,29.65,SW,225,4.0,7.0,0,0.00,,,0.45,Weather View 32 v70,2013-02-06 07:05:00,
2013-02-05 23:10:00,41.0,0.0,29.65,SW,225,5.0,7.0,0,0.00,,,0.45,Weather View 32 v70,2013-02-06 07:10:00,
2013-02-05 23:15:00,41.0,0.0,29.65,SW,225,4.0,7.0,0,0.00,,,0.45,Weather View 32 v70,2013-02-06 07:15:00,
2013-02-05 23:20:00,41.0,0.0,29.65,WSW,248,4.0,7.0,0,0.00,,,0.45,Weather View 32 v70,2013-02-06 07:20:00,
2013-02-05 23:25:00,42.0,0.0,29.65,SW,225,5.0,7.0,0,0.00,,,0.45,Weather View 32 v70,2013-02-06 07:25:00,
2013-02-05 23:30:00,42.0,0.0,29.65,SW,225,4.0,8.0,0,0.00,,,0.45,Weather View 32 v70,2013-02-06 07:30:00,
2013-02-05 23:35:00,42.0,0.0,29.66,WSW,248,3.0,8.0,0,0.00,,,0.45,Weather View 32 v70,2013-02-06 07:35:00,
2013-02-05 23:40:00,42.0,0.0,29.66,SW,225,5.0,8.0,0,0.00,,,0.45,Weather View 32 v70,2013-02-06 07:40:00,
2013-02-05 23:45:00,42.0,0.0,29.66,SSW,202,5.0,8.0,0,0.00,,,0.45,Weather View 32 v70,2013-02-06 07:45:00,
2013-02-05 23:50:00,42.0,0.0,29.66,WSW,248,6.0,8.0,0,0.00,,,0.45,Weather View 32 v70,2013-02-06 07:50:00,
2013-02-05 23:55:00,42.0,0.0,29.67,South,180,5.0,11.0,0,0.00,,,0.45,Weather View 32 v70,2013-02-06 07:55:00,